QPF
0.00 0.00 0.00 0.00 0.00 0.00 0.00 0.00 0.00 0.00 0.00 0.00 0.00 0.00 0.00 0.00 0.00 0.00 0.00 0.00 0.00 0.00 0.00 0.00 0.00 0.00 0.00 0.00 0.00 0.00 0.00 0.00 0.00 0.00 0.00 0.00 0.00 0.00 0.00 0.00 0.00 0.00 0.00 0.00
0.00 0.00 0.00 0.00 0.00 0.00 0.00 0.00 0.00 0.00 0.00 0.00 0.00 0.00 0.00 0.00 0.00 0.00 0.00 0.00 0.00 0.00 0.00 0.00 0.00 0.00 0.00 0.00 0.00 0.00 0.00 0.00 0.00 0.00 0.00 0.00 0.00 0.00 0.00 0.00 0.00 0.00 0.00 0.00
0.00 0.00 0.00 0.00 0.00 0.00 0.00 0.00 0.00 0.00 0.00 0.00 0.00 0.00 0.00 0.00 0.00 0.00 0.00 0.00 0.00 0.00 0.00 0.00 0.00 0.00 0.00 0.00 0.00 0.00 0.00 0.00 0.00 0.00 0.00 0.00 0.00 0.00 0.00 0.00 0.00 0.00 0.00 0.00
0.00 0.00 0.00 0.00 0.00 0.00 0.00 0.00 0.00 0.00 0.00 0.00 0.00 0.00 0.00 0.00 0.00 0.00 0.00 0.00 0.00 0.00 0.00 0.00 0.00 0.00 0.00 0.00 0.00 0.00 0.00 0.00 0.00 0.00 0.00 0.00 0.00 0.00 0.00 0.00 0.00 0.00 0.00 0.00
0.00 0.00 0.00 0.00 0.00 0.00 0.00 0.00 0.00 0.00 0.00 0.00 0.00 0.00 0.00 0.00 0.00 0.00 0.00 0.00 0.00 0.00 0.00 0.00 0.00 0.00 0.00 0.00 0.00 0.00 0.00 0.00 0.00 0.00 0.00 0.00 0.00 0.00 0.00 0.00 0.00 0.00 0.00 0.00
0.00 0.00 0.00 0.00 0.00 0.00 0.00 0.00 0.00 0.00 0.01 0.01 0.00 0.00 0.00 0.00 0.00 0.00 0.00 0.00 0.00 0.00 0.00 0.00 0.00 0.00 0.00 0.00 0.00 0.00 0.00 0.00 0.00 0.00 0.00 0.00 0.00 0.00 0.00 0.00 0.00 0.00 0.00 0.00
0.00 0.00 0.00 0.00 0.00 0.00 0.00 0.00 0.01 0.01 0.02 0.00 0.00 0.00 0.00 0.00 0.00 0.00 0.00 0.00 0.00 0.00 0.00 0.00 0.00 0.00 0.00 0.00 0.00 0.00 0.00 0.00 0.00 0.00 0.00 0.00 0.00 0.00 0.00 0.00 0.00 0.00 0.00 0.00
0.00 0.00 0.00 0.00 0.00 0.00 0.00 0.01 0.01 0.01 0.01 0.00 0.00 0.01 0.00 0.00 0.00 0.00 0.00 0.00 0.00 0.00 0.00 0.00 0.00 0.00 0.00 0.00 0.00 0.00 0.00 0.00 0.00 0.00 0.00 0.00 0.00 0.00 0.00 0.00 0.00 0.00 0.00 0.00
0.00 0.00 0.00 0.00 0.00 0.00 0.00 0.01 0.00 0.01 0.00 0.01 0.02 0.00 0.00 0.00 0.00 0.00 0.00 0.00 0.00 0.00 0.00 0.00 0.00 0.00 0.00 0.00 0.00 0.00 0.00 0.00 0.00 0.00 0.00 0.00 0.00 0.00 0.00 0.00 0.00 0.00 0.00 0.00
0.00 0.00 0.00 0.00 0.00 0.00 0.00 0.00 0.01 0.01 0.00 0.00 0.01 0.00 0.00 0.00 0.00 0.00 0.00 0.00 0.00 0.00 0.00 0.00 0.00 0.00 0.00 0.00 0.00 0.00 0.00 0.00 0.00 0.00 0.00 0.00 0.00 0.00 0.00 0.00 0.00 0.00 0.00 0.00
0.00 0.00 0.00 0.00 0.00 0.00 0.00 0.01 0.00 0.00 0.00 0.01 0.01 0.00 0.00 0.00 0.00 0.00 0.00 0.00 0.00 0.00 0.00 0.00 0.00 0.00 0.00 0.00 0.00 0.00 0.00 0.00 0.00 0.00 0.00 0.00 0.00 0.00 0.00 0.00 0.00 0.00 0.00 0.00
0.00 0.00 0.00 0.00 0.00 0.00 0.00 0.00 0.00 0.00 0.00 0.01 0.00 0.00 0.00 0.00 0.00 0.00 0.00 0.00 0.00 0.00 0.00 0.00 0.00 0.00 0.00 0.00 0.00 0.00 0.00 0.00 0.00 0.00 0.00 0.00 0.00 0.00 0.00 0.00 0.00 0.00 0.00 0.00
0.00 0.00 0.00 0.00 0.00 0.00 0.00 0.00 0.00 0.00 0.00 0.00 0.00 0.00 0.00 0.00 0.00 0.00 0.00 0.00 0.00 0.00 0.00 0.00 0.00 0.00 0.00 0.00 0.00 0.00 0.00 0.00 0.00 0.00 0.00 0.00 0.00 0.00 0.00 0.00 0.00 0.00 0.00 0.00
0.00 0.00 0.00 0.00 0.00 0.00 0.00 0.00 0.00 0.00 0.00 0.00 0.00 0.00 0.00 0.00 0.00 0.00 0.00 0.00 0.00 0.00 0.00 0.00 0.00 0.00 0.00 0.00 0.00 0.00 0.00 0.00 0.00 0.00 0.00 0.00 0.00 0.00 0.00 0.00 0.00 0.00 0.00 0.00
0.00 0.00 0.00 0.00 0.00 0.00 0.00 0.00 0.00 0.00 0.00 0.00 0.00 0.00 0.00 0.00 0.00 0.00 0.00 0.00 0.00 0.00 0.00 0.00 0.00 0.00 0.00 0.00 0.00 0.00 0.00 0.00 0.00 0.00 0.00 0.00 0.00 0.00 0.00 0.00 0.00 0.00 0.00 0.00
0.00 0.00 0.00 0.00 0.00 0.00 0.00 0.00 0.00 0.00 0.00 0.00 0.00 0.00 0.00 0.00 0.00 0.00 0.00 0.00 0.01 0.00 0.00 0.00 0.00 0.00 0.00 0.00 0.00 0.00 0.00 0.00 0.00 0.00 0.00 0.00 0.00 0.00 0.00 0.00 0.00 0.00 0.00 0.00
0.00 0.00 0.00 0.00 0.00 0.00 0.00 0.00 0.00 0.00 0.00 0.00 0.00 0.00 0.00 0.00 0.00 0.01 0.00 0.00 0.00 0.01 0.01 0.00 0.00 0.00 0.00 0.00 0.00 0.00 0.00 0.00 0.00 0.00 0.00 0.00 0.00 0.00 0.00 0.00 0.00 0.00 0.00 0.00
0.00 0.00 0.00 0.00 0.00 0.00 0.00 0.00 0.00 0.00 0.00 0.00 0.00 0.00 0.00 0.00 0.00 0.00 0.00 0.00 0.00 0.00 0.00 0.00 0.00 0.00 0.00 0.00 0.00 0.00 0.00 0.00 0.00 0.00 0.00 0.00 0.00 0.00 0.00 0.00 0.00 0.00 0.00 0.00
0.00 0.00 0.00 0.00 0.00 0.00 0.00 0.00 0.00 0.00 0.00 0.00 0.00 0.00 0.00 0.00 0.00 0.00 0.00 0.00 0.00 0.00 0.00 0.00 0.00 0.00 0.00 0.00 0.00 0.00 0.00 0.00 0.00 0.00 0.00 0.00 0.00 0.00 0.00 0.00 0.00 0.00 0.00 0.00
0.00 0.00 0.00 0.00 0.00 0.00 0.00 0.00 0.00 0.00 0.00 0.00 0.00 0.00 0.00 0.00 0.00 0.00 0.00 0.00 0.00 0.00 0.00 0.00 0.00 0.00 0.00 0.00 0.00 0.00 0.00 0.00 0.00 0.00 0.00 0.00 0.00 0.00 0.00 0.00 0.00 0.00 0.00 0.00
0.00 0.00 0.00 0.00 0.00 0.00 0.00 0.00 0.00 0.00 0.00 0.00 0.00 0.00 0.00 0.00 0.00 0.00 0.00 0.00 0.00 0.00 0.00 0.00 0.00 0.00 0.00 0.00 0.00 0.00 0.00 0.00 0.00 0.00 0.00 0.00 0.00 0.00 0.00 0.00 0.00 0.00 0.00 0.00
0.00 0.00 0.00 0.00 0.00 0.00 0.00 0.00 0.00 0.00 0.00 0.00 0.00 0.00 0.00 0.00 0.00 0.00 0.00 0.00 0.00 0.00 0.00 0.00 0.00 0.00 0.00 0.00 0.00 0.00 0.00 0.00 0.00 0.00 0.00 0.00 0.00 0.00 0.00 0.00 0.00 0.00 0.00 0.00
0.00 0.00 0.00 0.00 0.00 0.00 0.00 0.00 0.00 0.00 0.00 0.00 0.00 0.00 0.00 0.00 0.00 0.00 0.00 0.00 0.00 0.00 0.00 0.00 0.00 0.00 0.00 0.00 0.00 0.00 0.00 0.00 0.00 0.00 0.00 0.00 0.00 0.00 0.00 0.00 0.00 0.00 0.00 0.00
0.00 0.00 0.00 0.00 0.00 0.00 0.00 0.00 0.00 0.00 0.00 0.00 0.00 0.00 0.00 0.00 0.00 0.00 0.00 0.00 0.00 0.00 0.00 0.00 0.00 0.00 0.00 0.00 0.00 0.00 0.00 0.00 0.00 0.00 0.00 0.00 0.00 0.00 0.00 0.00 0.00 0.00 0.00 0.00
0.00 0.00 0.00 0.00 0.00 0.00 0.00 0.00 0.00 0.00 0.00 0.00 0.00 0.00 0.00 0.00 0.00 0.00 0.00 0.00 0.00 0.00 0.00 0.00 0.00 0.00 0.00 0.00 0.00 0.00 0.00 0.00 0.00 0.00 0.00 0.00 0.00 0.00 0.00 0.00 0.00 0.00 0.00 0.00
0.00 0.00 0.00 0.00 0.00 0.00 0.00 0.00 0.00 0.00 0.00 0.00 0.00 0.00 0.00 0.00 0.00 0.00 0.00 0.00 0.00 0.00 0.00 0.00 0.00 0.00 0.00 0.00 0.00 0.00 0.00 0.00 0.00 0.00 0.00 0.00 0.00 0.00 0.00 0.00 0.00 0.00 0.00 0.00
MSLP
1012.77 1013.33 1012.96 1012.78 1012.94 1012.92 1012.74 1012.76 1012.34 1011.68 1011.52 1011.12 1011.69 1012.49 1013.40 1014.20 1014.76 1015.13 1015.73 1016.86 1018.28 1019.54 1020.56 1021.22 1021.57 1021.74 1021.75 1021.71 1021.76 1021.79 1021.96 1022.16 1022.12 1022.10 1022.17 1022.25 1022.36 1022.36 1022.32 1022.47 1022.38 1022.74 1022.44 1021.90
1013.08 1013.09 1012.80 1012.55 1012.58 1012.96 1013.09 1013.14 1013.01 1012.40 1012.00 1012.47 1012.85 1013.44 1014.57 1015.19 1015.76 1016.21 1016.51 1017.12 1018.23 1019.60 1020.52 1021.18 1021.68 1022.00 1022.18 1022.13 1022.14 1022.19 1022.28 1022.32 1022.17 1022.30 1022.31 1022.22 1023.03 1022.44 1022.73 1022.69 1022.95 1023.24 1023.29 1022.68
1012.83 1013.04 1012.78 1012.93 1013.05 1013.50 1013.63 1013.67 1013.86 1013.66 1013.13 1013.36 1014.05 1014.48 1015.09 1016.13 1016.69 1017.29 1017.60 1017.81 1018.30 1019.34 1020.35 1021.23 1021.84 1022.20 1022.44 1022.58 1022.62 1022.62 1022.46 1022.40 1022.39 1022.23 1022.70 1022.76 1023.33 1023.03 1023.05 1023.44 1023.14 1023.07 1023.50 1023.34
1013.22 1013.80 1013.75 1013.90 1014.12 1014.24 1014.33 1014.15 1014.38 1014.63 1014.87 1014.85 1015.06 1015.52 1015.42 1016.43 1017.53 1018.36 1018.69 1018.83 1019.04 1019.46 1020.24 1021.16 1022.13 1022.54 1023.03 1023.08 1022.92 1022.92 1022.75 1022.60 1022.49 1022.32 1022.72 1022.66 1023.12 1022.71 1023.24 1023.83 1023.72 1023.05 1023.74 1023.86
1015.03 1014.97 1015.10 1015.13 1015.61 1015.52 1015.37 1015.03 1015.14 1015.37 1015.91 1016.38 1016.45 1017.22 1016.11 1016.90 1018.63 1019.05 1019.40 1019.85 1020.09 1020.32 1020.86 1021.51 1022.56 1023.40 1023.81 1023.92 1023.72 1023.49 1023.42 1023.30 1023.00 1022.73 1022.62 1022.45 1023.15 1022.98 1023.24 1024.07 1024.32 1024.07 1024.35 1024.76
1016.12 1016.39 1016.88 1017.10 1016.70 1016.44 1016.41 1016.30 1016.38 1016.64 1017.40 1017.62 1017.21 1018.30 1017.96 1019.18 1019.80 1019.40 1020.04 1020.51 1020.90 1021.30 1021.61 1022.13 1023.08 1023.91 1024.46 1024.75 1024.55 1024.37 1024.29 1024.25 1023.87 1023.39 1023.22 1023.19 1023.28 1023.78 1024.13 1024.06 1024.74 1024.84 1024.61 1025.08
1017.23 1017.96 1018.16 1018.28 1017.69 1017.00 1017.57 1017.97 1018.22 1018.65 1018.79 1017.68 1017.38 1019.07 1019.57 1020.68 1020.84 1020.67 1020.82 1021.60 1022.19 1022.61 1022.82 1022.89 1023.43 1024.40 1025.04 1025.23 1025.40 1025.30 1025.24 1025.23 1024.80 1024.34 1023.98 1023.68 1023.30 1024.01 1024.20 1024.23 1024.49 1025.22 1025.29 1025.37
1019.09 1019.70 1019.84 1019.80 1019.72 1019.60 1019.24 1019.36 1019.58 1019.41 1018.98 1018.36 1017.88 1019.68 1021.14 1022.11 1022.21 1022.01 1022.23 1022.68 1023.26 1023.64 1023.90 1024.04 1024.03 1024.82 1025.52 1025.78 1025.96 1025.91 1025.97 1026.11 1025.70 1025.35 1024.96 1024.24 1024.65 1024.66 1024.56 1024.75 1024.82 1025.24 1025.72 1025.02
1021.06 1021.07 1021.06 1020.88 1020.93 1021.01 1020.81 1020.84 1021.11 1020.93 1020.09 1020.24 1019.87 1021.51 1022.40 1022.94 1023.28 1023.51 1023.71 1023.94 1024.33 1024.57 1024.76 1024.96 1025.07 1025.46 1026.10 1026.45 1026.54 1026.52 1026.50 1026.60 1026.37 1026.13 1025.80 1025.51 1025.12 1024.92 1025.04 1025.24 1025.44 1025.68 1025.76 1025.70
1022.20 1022.20 1021.62 1021.50 1021.72 1021.98 1022.08 1022.32 1022.22 1022.15 1022.03 1021.48 1021.17 1022.33 1023.83 1023.90 1024.20 1024.54 1024.68 1025.00 1025.21 1025.34 1025.48 1025.66 1025.89 1026.20 1026.62 1026.87 1027.00 1026.90 1026.89 1027.07 1026.97 1026.79 1026.55 1026.24 1025.92 1025.68 1025.60 1025.64 1025.78 1025.93 1026.03 1025.79
1022.38 1023.02 1022.54 1022.37 1023.92 1024.36 1023.73 1023.87 1024.12 1023.60 1023.21 1022.89 1023.33 1024.76 1025.54 1025.42 1024.92 1025.30 1025.73 1025.92 1026.05 1026.22 1026.33 1026.46 1026.59 1026.73 1026.90 1027.11 1027.27 1027.36 1027.38 1027.49 1027.51 1027.31 1027.16 1026.96 1026.72 1026.48 1026.23 1026.27 1026.26 1026.13 1025.94 1025.90
1022.98 1023.48 1023.97 1025.05 1025.45 1025.64 1025.88 1026.30 1026.25 1026.02 1025.29 1024.58 1024.39 1026.37 1026.37 1026.15 1025.79 1025.95 1026.35 1026.65 1026.91 1027.08 1027.24 1027.41 1027.54 1027.63 1027.72 1027.80 1027.88 1027.93 1027.92 1027.86 1027.84 1027.77 1027.63 1027.48 1027.28 1026.99 1026.78 1026.67 1026.52 1026.35 1026.57 1026.45
1023.88 1024.13 1024.84 1025.67 1026.20 1026.06 1026.69 1027.35 1027.62 1027.60 1027.07 1026.46 1026.38 1027.37 1027.06 1026.50 1026.53 1026.61 1026.72 1027.04 1027.36 1027.61 1027.86 1028.11 1028.27 1028.42 1028.52 1028.53 1028.51 1028.50 1028.54 1028.44 1028.27 1027.99 1027.93 1027.82 1027.77 1027.71 1027.57 1027.38 1027.14 1026.87 1026.83 1026.80
1024.23 1024.80 1025.50 1026.14 1026.49 1026.76 1027.36 1028.02 1028.46 1028.51 1028.73 1028.83 1028.80 1028.50 1028.16 1027.73 1027.13 1026.96 1027.07 1027.36 1027.64 1027.89 1028.17 1028.46 1028.72 1028.90 1029.01 1029.06 1029.07 1029.05 1029.01 1028.96 1028.68 1028.45 1028.33 1028.37 1028.26 1028.19 1028.11 1027.97 1027.77 1027.55 1027.29 1027.40
1025.00 1025.66 1025.85 1026.09 1026.21 1026.57 1027.37 1028.20 1029.09 1029.86 1030.10 1029.93 1029.73 1029.40 1029.04 1028.47 1027.82 1027.37 1027.31 1027.52 1027.69 1027.90 1028.12 1028.40 1028.69 1028.95 1029.13 1029.30 1029.36 1029.39 1029.40 1029.33 1029.18 1028.94 1028.86 1028.85 1028.71 1028.56 1028.41 1028.32 1028.22 1027.95 1027.73 1027.83
1025.58 1025.97 1026.01 1026.28 1026.19 1026.69 1027.57 1028.40 1029.24 1029.87 1030.29 1030.22 1029.79 1029.76 1029.35 1028.61 1028.16 1027.85 1027.70 1027.61 1027.60 1027.69 1027.85 1028.06 1028.30 1028.59 1028.79 1028.97 1029.16 1029.33 1029.48 1029.50 1029.41 1029.34 1029.21 1029.16 1029.01 1028.92 1028.84 1028.71 1028.60 1028.47 1028.38 1028.37
1026.42 1026.87 1026.83 1026.52 1026.44 1027.10 1027.95 1028.66 1029.34 1030.44 1030.83 1030.83 1030.73 1030.75 1029.97 1029.27 1028.67 1028.02 1027.98 1028.00 1027.92 1027.84 1027.66 1027.75 1027.95 1028.15 1028.18 1028.51 1028.84 1029.13 1029.32 1029.37 1029.43 1029.41 1029.42 1029.38 1029.35 1029.29 1029.28 1029.16 1029.01 1028.88 1028.79 1028.71
1027.00 1027.38 1027.49 1027.45 1027.20 1027.84 1028.79 1028.71 1029.20 1030.14 1031.04 1031.33 1031.46 1031.27 1030.85 1030.30 1029.50 1028.77 1028.73 1028.80 1028.52 1028.18 1027.80 1027.34 1027.35 1027.50 1027.79 1028.18 1028.54 1028.85 1029.01 1029.16 1029.35 1029.42 1029.42 1029.47 1029.56 1029.61 1029.60 1029.55 1029.47 1029.32 1029.16 1029.01
1027.43 1027.94 1028.66 1028.64 1028.64 1029.17 1029.16 1029.14 1029.43 1030.00 1031.62 1032.14 1032.21 1032.07 1031.71 1030.76 1029.90 1029.70 1029.75 1029.75 1029.49 1028.87 1028.25 1027.75 1027.18 1027.25 1027.54 1027.91 1028.21 1028.52 1028.71 1028.88 1029.01 1029.12 1029.33 1029.43 1029.63 1029.78 1029.80 1029.85 1029.76 1029.61 1029.48 1029.33
1027.84 1028.51 1029.88 1029.54 1029.78 1029.95 1030.44 1030.13 1029.87 1030.27 1032.02 1033.11 1033.23 1033.23 1032.92 1032.17 1031.53 1030.95 1030.76 1030.52 1030.00 1029.53 1028.95 1028.29 1027.77 1027.57 1027.68 1027.83 1027.98 1028.29 1028.40 1028.43 1028.48 1028.54 1028.72 1028.98 1029.29 1029.58 1029.79 1029.81 1029.80 1029.74 1029.62 1029.53
1030.33 1030.63 1031.00 1031.14 1030.99 1031.51 1031.84 1031.15 1030.47 1032.43 1034.72 1034.41 1034.53 1034.52 1034.27 1034.13 1033.92 1032.79 1032.17 1031.42 1030.97 1030.31 1029.66 1029.05 1028.43 1027.96 1027.72 1027.62 1027.82 1028.05 1028.17 1028.08 1027.97 1028.03 1028.29 1028.55 1028.75 1029.01 1029.22 1029.44 1029.60 1029.58 1029.60 1029.53
1033.35 1033.79 1033.23 1032.90 1032.70 1033.35 1032.97 1032.35 1033.72 1035.57 1035.66 1035.96 1035.99 1035.80 1035.46 1035.08 1034.43 1033.83 1032.96 1032.33 1031.67 1031.04 1030.38 1029.81 1029.04 1028.40 1027.88 1027.46 1027.54 1027.69 1027.84 1027.75 1027.67 1027.81 1028.09 1028.28 1028.42 1028.58 1028.64 1028.97 1029.18 1029.34 1029.44 1029.67
1035.00 1035.58 1035.66 1035.46 1034.82 1034.77 1034.46 1035.24 1036.41 1036.89 1037.35 1037.40 1037.44 1037.08 1036.73 1036.05 1035.28 1034.61 1033.71 1033.14 1032.46 1031.89 1031.13 1030.45 1029.67 1028.83 1028.24 1027.41 1027.07 1027.13 1027.22 1027.40 1027.41 1027.56 1027.82 1027.99 1028.10 1028.16 1028.28 1028.48 1028.78 1029.19 1029.04 1029.47
1035.86 1036.22 1036.75 1036.65 1036.06 1035.95 1035.82 1036.79 1037.66 1038.18 1038.56 1038.62 1038.45 1038.03 1037.55 1036.87 1036.07 1035.16 1034.53 1033.76 1033.00 1032.35 1031.54 1030.72 1029.96 1029.14 1028.32 1027.67 1026.83 1026.54 1026.67 1026.97 1027.20 1027.40 1027.59 1027.67 1027.78 1027.83 1027.86 1027.87 1027.91 1028.24 1028.63 1028.52
1036.92 1037.40 1038.23 1037.90 1037.19 1036.96 1037.05 1037.68 1038.70 1039.09 1039.19 1039.36 1038.96 1038.60 1038.04 1037.29 1036.63 1035.82 1034.85 1034.06 1033.30 1032.47 1031.54 1030.89 1030.10 1029.22 1028.36 1027.62 1027.05 1026.55 1026.37 1026.57 1026.97 1027.17 1027.32 1027.41 1027.34 1027.42 1027.41 1027.28 1027.19 1027.14 1027.29 1027.18
1038.05 1039.39 1039.65 1039.42 1039.42 1039.84 1039.39 1039.28 1039.48 1039.83 1039.96 1039.64 1039.31 1038.51 1037.91 1037.28 1036.53 1035.64 1034.76 1033.89 1033.11 1032.17 1031.32 1030.55 1029.84 1029.05 1028.24 1027.68 1027.18 1026.84 1026.59 1026.43 1026.75 1026.99 1027.04 1026.99 1027.05 1027.08 1026.91 1026.90 1026.59 1026.20 1026.00 1026.10
Thickness
5424 5419 5424 5434 5438 5442 5443 5450 5457 5474 5472 5486 5490 5494 5483 5480 5487 5495 5496 5489 5485 5481 5477 5478 5480 5484 5490 5495 5499 5504 5508 5514 5521 5527 5533 5536 5540 5544 5548 5551 5552 5555 5558 5567
5413 5405 5426 5439 5441 5435 5438 5436 5442 5457 5467 5464 5467 5471 5454 5462 5467 5469 5480 5481 5473 5467 5464 5464 5465 5468 5471 5477 5482 5487 5492 5498 5507 5511 5518 5524 5524 5532 5533 5539 5538 5541 5542 5551
5402 5412 5424 5423 5424 5419 5419 5424 5424 5432 5447 5449 5446 5440 5451 5444 5437 5441 5446 5458 5460 5456 5449 5450 5449 5452 5456 5460 5464 5469 5477 5483 5490 5497 5500 5507 5507 5517 5521 5522 5528 5530 5529 5534
5401 5396 5401 5402 5402 5408 5407 5421 5416 5416 5409 5398 5423 5389 5443 5427 5417 5415 5428 5431 5439 5441 5441 5437 5430 5433 5435 5441 5447 5454 5460 5467 5474 5481 5486 5492 5496 5508 5508 5507 5513 5521 5517 5519
5362 5367 5371 5384 5374 5380 5393 5400 5406 5411 5392 5387 5405 5392 5423 5424 5406 5399 5396 5408 5414 5418 5422 5420 5411 5410 5412 5418 5426 5433 5441 5447 5455 5464 5472 5481 5482 5489 5494 5494 5495 5502 5500 5500
5352 5361 5351 5346 5362 5370 5377 5385 5390 5391 5367 5353 5396 5382 5394 5386 5373 5398 5390 5396 5395 5395 5400 5401 5396 5390 5391 5397 5405 5412 5418 5425 5433 5443 5453 5461 5467 5469 5473 5479 5480 5483 5488 5488
5350 5338 5341 5339 5347 5366 5360 5349 5309 5321 5347 5357 5397 5381 5365 5343 5352 5369 5373 5371 5367 5366 5371 5379 5380 5372 5373 5377 5383 5391 5396 5402 5412 5422 5431 5440 5450 5453 5458 5463 5467 5468 5471 5473
5309 5323 5301 5313 5318 5318 5331 5312 5300 5320 5306 5349 5381 5353 5330 5327 5339 5347 5347 5343 5345 5343 5347 5351 5362 5357 5354 5358 5363 5370 5376 5381 5390 5399 5409 5421 5425 5432 5440 5446 5451 5454 5455 5464
5274 5297 5302 5311 5310 5313 5315 5296 5314 5317 5322 5352 5360 5321 5311 5318 5321 5322 5322 5325 5323 5325 5327 5330 5337 5339 5336 5339 5344 5351 5358 5364 5371 5379 5388 5396 5407 5415 5420 5427 5431 5434 5440 5445
5277 5271 5296 5308 5303 5296 5293 5300 5305 5280 5284 5291 5327 5345 5307 5310 5306 5307 5309 5304 5305 5310 5312 5314 5318 5320 5322 5325 5329 5336 5342 5347 5353 5361 5369 5378 5386 5395 5402 5409 5413 5418 5422 5430
5288 5255 5293 5303 5247 5248 5266 5277 5271 5288 5313 5286 5274 5294 5273 5275 5290 5291 5287 5290 5291 5293 5296 5299 5302 5306 5310 5313 5318 5322 5327 5332 5336 5343 5351 5359 5367 5375 5384 5389 5395 5402 5410 5415
5282 5258 5259 5237 5239 5247 5246 5237 5241 5254 5286 5304 5282 5267 5260 5265 5276 5277 5277 5275 5274 5275 5277 5279 5282 5286 5290 5295 5300 5305 5310 5316 5322 5329 5335 5341 5349 5358 5366 5372 5380 5386 5390 5396
5265 5262 5261 5232 5234 5256 5237 5232 5220 5217 5241 5275 5276 5262 5252 5262 5263 5265 5265 5263 5263 5263 5264 5264 5267 5269 5273 5277 5282 5288 5293 5299 5306 5314 5319 5326 5333 5339 5346 5353 5360 5367 5374 5380
5263 5248 5245 5225 5226 5238 5223 5226 5212 5205 5244 5230 5229 5234 5232 5243 5256 5257 5255 5253 5252 5252 5253 5252 5253 5255 5258 5262 5266 5271 5277 5282 5290 5297 5303 5308 5315 5320 5327 5334 5342 5349 5355 5361
5246 5226 5247 5241 5251 5245 5238 5237 5211 5189 5195 5214 5211 5211 5212 5222 5240 5245 5248 5246 5246 5245 5245 5244 5243 5243 5246 5249 5252 5257 5261 5267 5273 5280 5286 5291 5297 5304 5310 5316 5323 5331 5337 5343
5247 5237 5255 5244 5258 5251 5233 5236 5226 5214 5190 5191 5212 5213 5210 5218 5225 5231 5234 5238 5239 5239 5239 5238 5238 5238 5240 5242 5244 5247 5249 5253 5259 5264 5270 5276 5283 5289 5294 5300 5306 5313 5320 5326
5226 5214 5225 5246 5255 5238 5229 5203 5208 5190 5188 5187 5195 5203 5208 5212 5218 5224 5221 5221 5224 5226 5231 5232 5231 5232 5236 5235 5236 5237 5239 5243 5247 5251 5256 5262 5267 5273 5278 5284 5291 5297 5302 5308
5233 5225 5226 5228 5238 5214 5199 5220 5217 5200 5189 5192 5192 5192 5193 5193 5198 5204 5204 5204 5207 5212 5219 5225 5227 5228 5227 5227 5227 5227 5230 5233 5236 5240 5244 5248 5252 5258 5263 5269 5274 5280 5287 5293
5238 5215 5202 5209 5215 5205 5211 5212 5202 5195 5184 5178 5174 5176 5177 5182 5190 5186 5188 5184 5186 5193 5199 5204 5213 5215 5216 5216 5217 5218 5221 5224 5227 5230 5233 5236 5239 5243 5248 5253 5259 5265 5271 5277
5254 5210 5207 5208 5204 5225 5188 5201 5207 5205 5187 5164 5163 5157 5158 5164 5161 5171 5167 5169 5173 5176 5180 5187 5192 5197 5199 5201 5203 5205 5209 5213 5217 5221 5223 5226 5229 5231 5235 5240 5245 5251 5257 5262
5216 5201 5199 5208 5192 5195 5181 5185 5199 5178 5148 5147 5146 5142 5139 5131 5134 5142 5144 5150 5154 5157 5161 5166 5172 5177 5180 5184 5188 5190 5194 5199 5205 5209 5212 5215 5218 5221 5224 5228 5233 5238 5243 5248
5171 5155 5185 5189 5192 5181 5173 5174 5156 5132 5131 5129 5124 5121 5118 5118 5119 5121 5127 5129 5133 5136 5141 5144 5151 5158 5163 5169 5172 5174 5177 5182 5190 5194 5197 5200 5204 5209 5214 5215 5219 5223 5227 5230
5177 5152 5145 5157 5176 5159 5159 5142 5126 5110 5106 5101 5093 5096 5092 5093 5096 5098 5102 5104 5108 5111 5116 5122 5129 5137 5144 5152 5157 5160 5163 5165 5172 5176 5180 5184 5189 5195 5200 5201 5203 5207 5212 5215
5169 5158 5152 5138 5148 5134 5135 5118 5109 5099 5082 5075 5071 5068 5069 5066 5070 5075 5075 5078 5082 5088 5094 5101 5106 5115 5126 5134 5143 5149 5151 5152 5155 5158 5162 5166 5172 5177 5183 5190 5193 5194 5198 5201
5148 5144 5127 5130 5131 5131 5130 5108 5085 5072 5063 5052 5046 5041 5038 5043 5044 5044 5050 5053 5057 5063 5070 5075 5084 5094 5106 5115 5123 5130 5137 5138 5141 5143 5147 5151 5157 5160 5166 5173 5177 5180 5185 5190
5135 5115 5101 5110 5096 5093 5089 5076 5065 5054 5042 5034 5028 5035 5028 5019 5025 5027 5031 5034 5038 5042 5048 5055 5062 5071 5082 5091 5101 5109 5116 5122 5124 5127 5132 5137 5142 5147 5153 5157 5163 5169 5174 5178